COSMOS 1603 DEB, 43312

Orbit data source: Space-Track

COSMOS 1603 DEB, 43312 is space debris in LEO originally from a launch on Fri, 28 Sep 1984 UTC launched from the Tyuratam Missile And Space Complex (TTMTR). Debris objects in space refer to the collection of defunct objects orbiting the Earth. Examples of debris include non-operational satellites, rocket bodies, and fragments generated from explosions, collisions, or faulty payload assembly.

Loading next visibility...
COSMOS 1603 DEB details
Identifier
43312, 1984-106AE
Orbit
LEO
Last TLE update1 day ago
Origin
Flag of CISRVSN RF (CIS)
ManufacturerUnknown
MissionSpacecraft
Bus & MotorUnknown
MassUnknown
Launch date (UTC)
1984-09-28 (40 years ago)
Launch vehicleUnknown
Launch site
Tyuratam Missile And Space Complex (TTMTR)
Object type
Payload
Rocket body
Debris
Shape & HBRUnknown
Radar Cross SectionSmall (<0.1 m²)

Expand to show TLE details & history

TLE from 1 day ago
0 COSMOS 1603 DEB
1 43312U 84106AE  24339.40328667  .00003595  00000-0  17156-2 0  9993
2 43312  71.0253 123.7777 0018827 357.0746   3.0265 14.19770680455165
Epoch: 2024-12-04T09:40Z
Definitive object data (Epoch: 2024-12-04T09:40:43.968Z)
Latitude-0.0001°
Longitude-95.10447°
Altitude814.989 km
Speed7.453 km/s
True Right ascension08h 15m 06s
True Declination0° 00' 00"
Sunlit
Object was in full shadow at TLE epoch
Visualization TLE readout
Latitude-44.27147°
Longitude102.19448°
Altitude850.989 km
Speed7.422 km/s
Apparent Right ascension20h 54m 48s
Apparent Declination-42° 18' 07"
Sunlit
Object is in daylight
Visualization observer readout
Local Sidereal Time08:23:34
Azimuth245.388° WSW
Elevation-83.655°
Doppler factor1
Orbital elements
Apogee altitude837.606 km
Perigee altitude810.487 km
Semi-major axis7,202.183 km
Eccentricity0.0018827
Inclination71.0253°
RAAN123.7777°
Arg. of periapsis357.0746°
True anomaly3.03792°
Mean anomaly3.0265°
Eccentric anomaly3.03221°
Mean motion3.55097 °/min
BSTAR0.0017156
Orbital period101.38 mins
Loading maneuver chart data...

COSMOS 1603 DEB Visibility forecast

Observer location: undefined°, undefined

Span
Click to sort rows by Start time (UTC) header in descending order
Start Az.
Max El. time (UTC)
Max El. Az.
Max El.
End time (UTC)
End Az.
10 mins2024-12-05 11:09:10.969Z201.579° SSW2024-12-05 11:14:10.969Z204.097° SW44.515°2024-12-05 11:19:10.969Z22.913° NE
9 mins2024-12-05 20:03:10.969Z358.429° N2024-12-05 20:07:10.969Z57.359° ENE30.725°2024-12-05 20:12:10.969Z125.043° SE
8 mins2024-12-05 21:47:10.969Z308.568° NW2024-12-05 21:51:10.969Z249.497° W26.623°2024-12-05 21:55:10.969Z199.685° SSW
|